| time (UTC) | temp F | wind direction | speed MPH | gust MPH | rain 1hr in | rain 24hr in | rain mn in | humidity % | barometer mb |
| 20260506230103 | 50 | 265 | 8.0 | 14.0 | 0.00 | 0.00 | 0.00 | 70 | 1023.1 |
| 20260506225515 | 49 | 268 | 6.0 | 16.0 | 0.00 | 0.00 | 0.00 | 72 | 1022.9 |
| 20260506225012 | 49 | 282 | 9.0 | 16.0 | 0.00 | 0.00 | 0.00 | 72 | 1023.0 |
| 20260506224537 | 49 | 274 | 11.0 | 16.0 | 0.00 | 0.00 | 0.00 | 71 | 1022.9 |
| 20260506224012 | 49 | 283 | 8.0 | 15.0 | 0.00 | 0.00 | 0.00 | 73 | 1023.0 |
| 20260506223510 | 49 | 268 | 9.0 | 16.0 | 0.00 | 0.00 | 0.00 | 72 | 1022.9 |
| 20260506223041 | 50 | 277 | 11.0 | 16.0 | 0.00 | 0.00 | 0.00 | 70 | 1022.9 |
| 20260506222512 | 50 | 281 | 10.0 | 16.0 | 0.00 | 0.00 | 0.00 | 69 | 1023.0 |
| 20260506222018 | 50 | 278 | 9.0 | 14.0 | 0.00 | 0.00 | 0.00 | 69 | 1023.0 |
| 20260506221532 | 50 | 298 | 11.0 | 15.0 | 0.00 | 0.00 | 0.00 | 67 | 1022.9 |
| 20260506221014 | 50 | 281 | 9.0 | 15.0 | 0.00 | 0.00 | 0.00 | 70 | 1022.8 |
| 20260506220514 | 50 | 275 | 10.0 | 13.0 | 0.00 | 0.00 | 0.00 | 70 | 1022.7 |
| 20260506220043 | 50 | 284 | 9.0 | 14.0 | 0.00 | 0.00 | 0.00 | 69 | 1022.8 |
| 20260506215515 | 51 | 271 | 9.0 | 14.0 | 0.00 | 0.00 | 0.00 | 67 | 1022.8 |
| 20260506215011 | 52 | 273 | 8.0 | 13.0 | 0.00 | 0.00 | 0.00 | 65 | 1022.9 |
| 20260506214538 | 52 | 319 | 7.0 | 13.0 | 0.00 | 0.00 | 0.00 | 63 | 1022.8 |
| 20260506214013 | 51 | 296 | 7.0 | 16.0 | 0.00 | 0.00 | 0.00 | 63 | 1022.8 |
| 20260506213511 | 51 | 268 | 10.0 | 15.0 | 0.00 | 0.00 | 0.00 | 63 | 1022.8 |
| 20260506213038 | 51 | 307 | 9.0 | 15.0 | 0.00 | 0.00 | 0.00 | 61 | 1022.9 |
| 20260506212515 | 51 | 277 | 10.0 | 14.0 | 0.00 | 0.00 | 0.00 | 63 | 1022.8 |
| 20260506212016 | 52 | 281 | 8.0 | 14.0 | 0.00 | 0.00 | 0.00 | 62 | 1022.8 |
| 20260506211538 | 52 | 286 | 8.0 | 14.0 | 0.00 | 0.00 | 0.00 | 64 | 1022.8 |
| 20260506211013 | 51 | 290 | 8.0 | 14.0 | 0.00 | 0.00 | 0.00 | 65 | 1022.8 |
| 20260506210513 | 51 | 284 | 9.0 | 14.0 | 0.00 | 0.00 | 0.00 | 65 | 1022.7 |
| 20260506210042 | 52 | 282 | 10.0 | 15.0 | 0.00 | 0.00 | 0.00 | 64 | 1022.8 |
| 20260506205514 | 53 | 275 | 8.0 | 12.0 | 0.00 | 0.00 | 0.00 | 62 | 1022.8 |
| 20260506205015 | 53 | 295 | 4.0 | 11.0 | 0.00 | 0.00 | 0.00 | 62 | 1022.8 |
| 20260506204547 | 53 | 265 | 6.0 | 10.0 | 0.00 | 0.00 | 0.00 | 61 | 1022.7 |
| 20260506204012 | 53 | 276 | 4.0 | 8.0 | 0.00 | 0.00 | 0.00 | 61 | 1022.6 |
| 20260506203511 | 54 | 298 | 4.0 | 8.0 | 0.00 | 0.00 | 0.00 | 58 | 1022.5 |
| 20260506203036 | 54 | 324 | 3.0 | 11.0 | 0.00 | 0.00 | 0.00 | 59 | 1022.6 |
| 20260506202514 | 53 | 285 | 3.0 | 9.0 | 0.00 | 0.00 | 0.00 | 63 | 1022.5 |
| 20260506202012 | 53 | 284 | 4.0 | 8.0 | 0.00 | 0.00 | 0.00 | 61 | 1022.4 |
| 20260506201547 | 53 | 295 | 3.0 | 10.0 | 0.00 | 0.00 | 0.00 | 60 | 1022.4 |
| 20260506201015 | 52 | 289 | 3.0 | 10.0 | 0.00 | 0.00 | 0.00 | 61 | 1022.3 |
| 20260506200515 | 52 | 269 | 3.0 | 11.0 | 0.00 | 0.00 | 0.00 | 61 | 1022.4 |
| 20260506200052 | 52 | 329 | 4.0 | 10.0 | 0.00 | 0.00 | 0.00 | 62 | 1022.3 |
| 20260506195516 | 51 | 295 | 4.0 | 10.0 | 0.00 | 0.00 | 0.00 | 62 | 1022.3 |
| 20260506195015 | 51 | 286 | 7.0 | 11.0 | 0.00 | 0.00 | 0.00 | 63 | 1022.2 |
| 20260506194543 | 52 | 284 | 7.0 | 11.0 | 0.00 | 0.00 | 0.00 | 62 | 1022.1 |
| 20260506194017 | 52 | 337 | 5.0 | 10.0 | 0.00 | 0.00 | 0.00 | 61 | 1022.3 |
| 20260506193515 | 51 | 273 | 4.0 | 10.0 | 0.00 | 0.00 | 0.00 | 65 | 1022.1 |
| 20260506193041 | 51 | 344 | 4.0 | 10.0 | 0.00 | 0.00 | 0.00 | 64 | 1022.1 |
| 20260506192515 | 50 | 313 | 1.0 | 9.0 | 0.00 | 0.00 | 0.00 | 66 | 1022.1 |
| 20260506192019 | 49 | 344 | 2.0 | 11.0 | 0.00 | 0.00 | 0.00 | 68 | 1022.1 |
| 20260506191548 | 49 | 320 | 5.0 | 11.0 | 0.00 | 0.00 | 0.00 | 67 | 1022.0 |
| 20260506191013 | 50 | 5 | 5.0 | 9.0 | 0.00 | 0.00 | 0.00 | 66 | 1022.0 |
| 20260506190516 | 49 | 310 | 3.0 | 9.0 | 0.00 | 0.00 | 0.00 | 68 | 1022.0 |
| 20260506190052 | 49 | 323 | 4.0 | 9.0 | 0.00 | 0.00 | 0.00 | 66 | 1021.9 |
| 20260506185515 | 50 | 341 | 3.0 | 9.0 | 0.00 | 0.00 | 0.00 | 66 | 1022.0 |
| 20260506185017 | 50 | 325 | 3.0 | 10.0 | 0.00 | 0.00 | 0.00 | 68 | 1022.0 |
| 20260506184558 | 49 | 306 | 4.0 | 11.0 | 0.00 | 0.00 | 0.00 | 66 | 1021.8 |
| 20260506184018 | 50 | 328 | 7.0 | 13.0 | 0.00 | 0.00 | 0.00 | 63 | 1021.8 |
| 20260506183518 | 51 | 20 | 4.0 | 9.0 | 0.00 | 0.00 | 0.00 | 65 | 1022.0 |
| 20260506183048 | 50 | 292 | 1.0 | 6.0 | 0.00 | 0.00 | 0.00 | 69 | 1021.7 |
| 20260506182512 | 49 | 342 | 2.0 | 9.0 | 0.00 | 0.00 | 0.00 | 69 | 1021.7 |
| 20260506182014 | 48 | 332 | 4.0 | 8.0 | 0.00 | 0.00 | 0.00 | 69 | 1021.7 |
| 20260506181548 | 48 | 342 | 4.0 | 9.0 | 0.00 | 0.00 | 0.00 | 68 | 1021.8 |
| 20260506181019 | 48 | 311 | 3.0 | 10.0 | 0.00 | 0.00 | 0.00 | 70 | 1021.6 |
| 20260506180516 | 48 | 327 | 5.0 | 10.0 | 0.00 | 0.00 | 0.00 | 68 | 1021.7 |
| 20260506180056 | 48 | 322 | 3.0 | 9.0 | 0.00 | 0.00 | 0.00 | 69 | 1021.8 |
| 20260506175515 | 48 | 326 | 4.0 | 10.0 | 0.00 | 0.00 | 0.00 | 68 | 1021.7 |
| 20260506175017 | 48 | 46 | 5.0 | 10.0 | 0.00 | 0.00 | 0.00 | 68 | 1021.6 |
| 20260506174547 | 48 | 38 | 4.0 | 11.0 | 0.00 | 0.00 | 0.00 | 70 | 1021.8 |
| 20260506174016 | 48 | 9 | 5.0 | 11.0 | 0.00 | 0.00 | 0.00 | 68 | 1021.7 |
| 20260506173515 | 49 | 9 | 2.0 | 8.0 | 0.00 | 0.00 | 0.00 | 69 | 1021.7 |
| 20260506173049 | 48 | 346 | 1.0 | 9.0 | 0.00 | 0.00 | 0.00 | 72 | 1021.8 |
| 20260506172515 | 48 | 30 | 2.0 | 10.0 | 0.00 | 0.00 | 0.00 | 72 | 1021.6 |
| 20260506172013 | 47 | 46 | 3.0 | 12.0 | 0.00 | 0.00 | 0.00 | 70 | 1021.5 |
| 20260506171555 | 47 | 352 | 5.0 | 10.0 | 0.00 | 0.00 | 0.00 | 71 | 1021.6 |
| 20260506171017 | 47 | 315 | 6.0 | 11.0 | 0.00 | 0.00 | 0.00 | 72 | 1021.7 |
| 20260506170517 | 47 | 327 | 4.0 | 11.0 | 0.00 | 0.00 | 0.00 | 73 | 1021.8 |
| 20260506170057 | 47 | 302 | 3.0 | 9.0 | 0.00 | 0.00 | 0.00 | 74 | 1021.7 |
| 20260506165516 | 46 | 23 | 4.0 | 10.0 | 0.00 | 0.00 | 0.00 | 74 | 1021.7 |
| 20260506165015 | 46 | 323 | 3.0 | 10.0 | 0.00 | 0.00 | 0.00 | 76 | 1021.7 |
| 20260506164548 | 46 | 350 | 4.0 | 6.0 | 0.00 | 0.00 | 0.00 | 75 | 1021.6 |
| 20260506164019 | 45 | 321 | 2.0 | 9.0 | 0.00 | 0.00 | 0.00 | 76 | 1021.7 |
| 20260506163517 | 45 | 297 | 3.0 | 9.0 | 0.00 | 0.00 | 0.00 | 76 | 1021.8 |
| 20260506163045 | 45 | 335 | 3.0 | 8.0 | 0.00 | 0.00 | 0.00 | 76 | 1021.8 |
| 20260506162516 | 45 | 315 | 3.0 | 8.0 | 0.00 | 0.00 | 0.00 | 76 | 1021.7 |
| 20260506162014 | 45 | 309 | 4.0 | 11.0 | 0.00 | 0.00 | 0.00 | 76 | 1021.6 |
| 20260506161549 | 45 | 351 | 4.0 | 11.0 | 0.00 | 0.00 | 0.00 | 76 | 1021.6 |
| 20260506161016 | 45 | 333 | 3.0 | 13.0 | 0.00 | 0.00 | 0.00 | 76 | 1021.5 |
| 20260506160515 | 44 | 313 | 3.0 | 13.0 | 0.00 | 0.00 | 0.00 | 77 | 1021.5 |
| 20260506160108 | 44 | 355 | 5.0 | 13.0 | 0.00 | 0.00 | 0.00 | 77 | 1021.6 |
| 20260506155515 | 44 | 315 | 7.0 | 13.0 | 0.00 | 0.00 | 0.00 | 76 | 1021.4 |
| 20260506155016 | 44 | 298 | 7.0 | 13.0 | 0.00 | 0.00 | 0.00 | 77 | 1021.2 |
| 20260506154547 | 44 | 317 | 7.0 | 12.0 | 0.00 | 0.00 | 0.00 | 77 | 1021.1 |
| 20260506154016 | 44 | 308 | 6.0 | 12.0 | 0.00 | 0.00 | 0.00 | 78 | 1021.3 |
| 20260506153517 | 44 | 317 | 5.0 | 14.0 | 0.00 | 0.00 | 0.00 | 79 | 1021.1 |
| 20260506153053 | 44 | 313 | 7.0 | 14.0 | 0.00 | 0.00 | 0.00 | 78 | 1021.0 |
| 20260506152520 | 44 | 319 | 7.0 | 13.0 | 0.00 | 0.00 | 0.00 | 79 | 1021.1 |
| 20260506152014 | 44 | 332 | 5.0 | 14.0 | 0.00 | 0.00 | 0.00 | 79 | 1021.1 |
| 20260506151557 | 44 | 340 | 8.0 | 14.0 | 0.00 | 0.00 | 0.00 | 78 | 1021.0 |
| 20260506151017 | 44 | 301 | 7.0 | 13.0 | 0.00 | 0.00 | 0.00 | 79 | 1020.8 |
| 20260506150515 | 44 | 310 | 6.0 | 12.0 | 0.00 | 0.00 | 0.00 | 79 | 1021.0 |
| 20260506150057 | 44 | 321 | 5.0 | 14.0 | 0.00 | 0.00 | 0.00 | 79 | 1021.0 |
| 20260506145515 | 44 | 321 | 5.0 | 13.0 | 0.00 | 0.00 | 0.00 | 79 | 1020.8 |
| 20260506145016 | 44 | 323 | 5.0 | 12.0 | 0.00 | 0.00 | 0.00 | 79 | 1021.0 |
| 20260506144601 | 44 | 345 | 6.0 | 15.0 | 0.00 | 0.00 | 0.00 | 79 | 1020.9 |
| 20260506144018 | 44 | 330 | 9.0 | 15.0 | 0.00 | 0.00 | 0.00 | 79 | 1020.7 |
| 20260506143517 | 43 | 312 | 9.0 | 16.0 | 0.00 | 0.00 | 0.00 | 79 | 1020.6 |
| 20260506143057 | 43 | 302 | 8.0 | 16.0 | 0.00 | 0.00 | 0.00 | 79 | 1020.6 |
| 20260506142515 | 43 | 315 | 7.0 | 14.0 | 0.00 | 0.00 | 0.00 | 80 | 1020.5 |
| 20260506142015 | 43 | 302 | 6.0 | 12.0 | 0.00 | 0.00 | 0.00 | 80 | 1020.8 |
| 20260506141550 | 43 | 310 | 6.0 | 13.0 | 0.00 | 0.00 | 0.00 | 80 | 1020.6 |
| 20260506141014 | 43 | 333 | 7.0 | 13.0 | 0.00 | 0.00 | 0.00 | 80 | 1020.6 |
| 20260506140516 | 43 | 302 | 5.0 | 14.0 | 0.00 | 0.00 | 0.00 | 80 | 1020.5 |
| 20260506140104 | 43 | 303 | 7.0 | 15.0 | 0.00 | 0.00 | 0.00 | 80 | 1020.6 |
| 20260506135517 | 43 | 313 | 8.0 | 16.0 | 0.00 | 0.00 | 0.00 | 80 | 1020.5 |
| 20260506135016 | 44 | 309 | 9.0 | 16.0 | 0.00 | 0.00 | 0.00 | 80 | 1020.4 |
| 20260506134558 | 43 | 344 | 7.0 | 16.0 | 0.00 | 0.00 | 0.00 | 80 | 1020.3 |
| 20260506134014 | 43 | 360 | 7.0 | 16.0 | 0.00 | 0.00 | 0.00 | 80 | 1020.2 |
| 20260506133515 | 43 | 305 | 5.0 | 14.0 | 0.00 | 0.00 | 0.00 | 80 | 1020.3 |
| 20260506133057 | 43 | 319 | 8.0 | 14.0 | 0.00 | 0.00 | 0.00 | 80 | 1020.2 |
| 20260506132516 | 44 | 292 | 7.0 | 13.0 | 0.00 | 0.00 | 0.00 | 80 | 1020.1 |
| 20260506132017 | 44 | 316 | 6.0 | 12.0 | 0.00 | 0.00 | 0.00 | 80 | 1020.0 |
| 20260506131612 | 43 | 324 | 7.0 | 12.0 | 0.00 | 0.00 | 0.00 | 80 | 1020.3 |
| 20260506131021 | 44 | 313 | 5.0 | 12.0 | 0.00 | 0.00 | 0.00 | 80 | 1020.1 |
| 20260506130518 | 44 | 313 | 5.0 | 13.0 | 0.00 | 0.00 | 0.00 | 80 | 1020.1 |
| 20260506130109 | 44 | 328 | 7.0 | 13.0 | 0.00 | 0.00 | 0.00 | 81 | 1020.0 |
| 20260506125515 | 44 | 342 | 8.0 | 13.0 | 0.00 | 0.00 | 0.00 | 81 | 1020.1 |
| 20260506125019 | 44 | 312 | 6.0 | 15.0 | 0.00 | 0.00 | 0.00 | 80 | 1020.0 |
| 20260506124556 | 44 | 302 | 10.0 | 15.0 | 0.00 | 0.00 | 0.00 | 80 | 1020.0 |
| 20260506124016 | 44 | 352 | 6.0 | 12.0 | 0.00 | 0.00 | 0.00 | 81 | 1020.1 |
| 20260506123519 | 44 | 312 | 5.0 | 13.0 | 0.00 | 0.00 | 0.00 | 80 | 1020.0 |
| 20260506123056 | 44 | 9 | 6.0 | 16.0 | 0.00 | 0.00 | 0.00 | 80 | 1019.9 |
| 20260506122510 | 44 | 332 | 7.0 | 16.0 | 0.00 | 0.00 | 0.00 | 80 | 1019.8 |
| 20260506122016 | 44 | 322 | 6.0 | 11.0 | 0.00 | 0.00 | 0.00 | 81 | 1019.9 |
| 20260506121530 | 44 | 295 | 4.0 | 12.0 | 0.00 | 0.00 | 0.00 | 82 | 1019.8 |
| 20260506121010 | 44 | 341 | 6.0 | 11.0 | 0.00 | 0.00 | 0.00 | 82 | 1019.8 |
| 20260506120511 | 44 | 13 | 5.0 | 12.0 | 0.00 | 0.00 | 0.00 | 83 | 1019.8 |
| 20260506120033 | 44 | 349 | 6.0 | 12.0 | 0.00 | 0.00 | 0.00 | 83 | 1019.7 |
| 20260506115509 | 44 | 342 | 5.0 | 11.0 | 0.00 | 0.00 | 0.00 | 83 | 1019.5 |
| 20260506115013 | 44 | 5 | 4.0 | 11.0 | 0.00 | 0.00 | 0.00 | 83 | 1019.7 |
| 20260506114536 | 44 | 313 | 5.0 | 10.0 | 0.00 | 0.00 | 0.00 | 83 | 1019.6 |
| 20260506114011 | 44 | 343 | 6.0 | 13.0 | 0.00 | 0.00 | 0.00 | 82 | 1019.6 |
| 20260506113509 | 44 | 350 | 5.0 | 13.0 | 0.00 | 0.00 | 0.00 | 82 | 1019.5 |
| 20260506113032 | 44 | 316 | 6.0 | 11.0 | 0.00 | 0.00 | 0.00 | 82 | 1019.5 |
| 20260506112517 | 44 | 352 | 5.0 | 10.0 | 0.00 | 0.00 | 0.00 | 83 | 1019.5 |
| 20260506112011 | 44 | 326 | 6.0 | 11.0 | 0.00 | 0.00 | 0.00 | 82 | 1019.5 |
| 20260506111529 | 44 | 330 | 5.0 | 11.0 | 0.00 | 0.00 | 0.00 | 82 | 1019.5 |
| 20260506111013 | 44 | 352 | 6.0 | 11.0 | 0.00 | 0.00 | 0.00 | 82 | 1019.3 |
| 20260506110514 | 44 | 9 | 6.0 | 10.0 | 0.00 | 0.00 | 0.00 | 82 | 1019.5 |
| 20260506110033 | 44 | 331 | 6.0 | 11.0 | 0.00 | 0.00 | 0.00 | 82 | 1019.4 |
| 20260506105517 | 44 | 336 | 6.0 | 11.0 | 0.00 | 0.00 | 0.00 | 82 | 1019.3 |
| 20260506105010 | 44 | 331 | 5.0 | 11.0 | 0.00 | 0.00 | 0.00 | 82 | 1019.3 |
| 20260506104534 | 44 | 314 | 5.0 | 10.0 | 0.00 | 0.00 | 0.00 | 83 | 1019.3 |
| 20260506104011 | 44 | 360 | 6.0 | 11.0 | 0.00 | 0.00 | 0.00 | 83 | 1019.3 |
| 20260506103514 | 44 | 5 | 5.0 | 11.0 | 0.00 | 0.00 | 0.00 | 83 | 1019.3 |
| 20260506103033 | 44 | 325 | 6.0 | 12.0 | 0.00 | 0.00 | 0.00 | 83 | 1019.1 |
| 20260506102513 | 44 | 333 | 7.0 | 12.0 | 0.00 | 0.00 | 0.00 | 83 | 1019.1 |
| 20260506102010 | 44 | 325 | 5.0 | 11.0 | 0.00 | 0.00 | 0.00 | 84 | 1019.3 |
| 20260506101530 | 44 | 319 | 5.0 | 13.0 | 0.00 | 0.00 | 0.00 | 83 | 1019.3 |
| 20260506101011 | 44 | 313 | 7.0 | 13.0 | 0.00 | 0.00 | 0.00 | 84 | 1019.3 |
| 20260506100512 | 44 | 311 | 6.0 | 11.0 | 0.00 | 0.00 | 0.00 | 84 | 1019.1 |
| 20260506100029 | 44 | 330 | 6.0 | 11.0 | 0.00 | 0.00 | 0.00 | 84 | 1019.2 |
| 20260506095510 | 44 | 313 | 6.0 | 11.0 | 0.00 | 0.00 | 0.00 | 84 | 1019.0 |
| 20260506095013 | 44 | 343 | 6.0 | 11.0 | 0.00 | 0.00 | 0.00 | 84 | 1019.1 |
| 20260506094529 | 44 | 350 | 6.0 | 12.0 | 0.00 | 0.00 | 0.00 | 85 | 1018.9 |
| 20260506094009 | 44 | 14 | 6.0 | 12.0 | 0.00 | 0.00 | 0.00 | 85 | 1018.8 |
| 20260506093515 | 44 | 337 | 6.0 | 12.0 | 0.00 | 0.00 | 0.00 | 85 | 1018.9 |
| 20260506093028 | 44 | 346 | 6.0 | 12.0 | 0.00 | 0.00 | 0.00 | 85 | 1018.8 |
| 20260506092516 | 43 | 331 | 7.0 | 11.0 | 0.00 | 0.00 | 0.00 | 85 | 1018.8 |
| 20260506092016 | 44 | 349 | 7.0 | 13.0 | 0.00 | 0.00 | 0.00 | 84 | 1018.8 |
| 20260506091533 | 44 | 352 | 7.0 | 13.0 | 0.00 | 0.00 | 0.00 | 84 | 1018.8 |
| 20260506091014 | 44 | 10 | 6.0 | 12.0 | 0.00 | 0.00 | 0.00 | 84 | 1018.7 |
| 20260506090511 | 44 | 355 | 7.0 | 15.0 | 0.00 | 0.00 | 0.00 | 84 | 1018.7 |
| 20260506090029 | 44 | 346 | 8.0 | 15.0 | 0.00 | 0.00 | 0.00 | 84 | 1018.9 |
| 20260506085511 | 44 | 344 | 7.0 | 13.0 | 0.00 | 0.00 | 0.00 | 84 | 1018.8 |
| 20260506085012 | 44 | 345 | 6.0 | 13.0 | 0.00 | 0.00 | 0.00 | 83 | 1018.6 |
| 20260506084527 | 44 | 330 | 7.0 | 13.0 | 0.00 | 0.00 | 0.00 | 83 | 1018.7 |
| 20260506084011 | 44 | 349 | 7.0 | 13.0 | 0.00 | 0.00 | 0.00 | 83 | 1018.6 |
| 20260506083510 | 44 | 319 | 7.0 | 12.0 | 0.00 | 0.00 | 0.00 | 82 | 1018.6 |
| 20260506083030 | 44 | 339 | 7.0 | 13.0 | 0.00 | 0.00 | 0.00 | 82 | 1018.7 |
| 20260506082512 | 44 | 324 | 7.0 | 16.0 | 0.00 | 0.00 | 0.00 | 82 | 1018.7 |
| 20260506082012 | 44 | 360 | 8.0 | 16.0 | 0.00 | 0.00 | 0.00 | 81 | 1018.7 |
| 20260506081528 | 44 | 319 | 9.0 | 13.0 | 0.00 | 0.00 | 0.00 | 81 | 1018.8 |
| 20260506081013 | 44 | 324 | 7.0 | 13.0 | 0.00 | 0.00 | 0.00 | 80 | 1018.7 |
| 20260506080513 | 44 | 298 | 8.0 | 13.0 | 0.00 | 0.00 | 0.00 | 80 | 1018.7 |
| 20260506073513 | 44 | 296 | 7.0 | 13.0 | 0.00 | 0.00 | 0.00 | 78 | 1018.6 |
| 20260506073029 | 44 | 333 | 7.0 | 12.0 | 0.00 | 0.00 | 0.00 | 78 | 1018.4 |
| 20260506072512 | 44 | 333 | 5.0 | 12.0 | 0.00 | 0.00 | 0.00 | 77 | 1018.5 |
| 20260506072013 | 44 | 340 | 7.0 | 12.0 | 0.00 | 0.00 | 0.00 | 77 | 1018.5 |
| 20260506071527 | 44 | 315 | 7.0 | 14.0 | 0.00 | 0.00 | 0.00 | 77 | 1018.3 |
| 20260506071010 | 44 | 333 | 8.0 | 15.0 | 0.00 | 0.00 | 0.00 | 77 | 1018.3 |
| 20260506070515 | 44 | 5 | 8.0 | 15.0 | 0.00 | 0.00 | 0.00 | 77 | 1018.3 |
| 20260506062512 | 45 | 333 | 8.0 | 16.0 | 0.00 | 0.00 | 0.00 | 76 | 1018.0 |
| 20260506062012 | 45 | 36 | 8.0 | 18.0 | 0.00 | 0.00 | 0.00 | 76 | 1017.9 |
| 20260506061528 | 45 | 332 | 9.0 | 18.0 | 0.00 | 0.00 | 0.00 | 75 | 1018.1 |
| 20260506061016 | 45 | 342 | 9.0 | 17.0 | 0.00 | 0.00 | 0.00 | 76 | 1017.9 |
| 20260506060515 | 45 | 348 | 9.0 | 15.0 | 0.00 | 0.00 | 0.00 | 76 | 1018.0 |
| 20260506051014 | 46 | 338 | 10.0 | 18.0 | 0.00 | 0.00 | 0.00 | 75 | 1017.7 |
| 20260506050514 | 46 | 320 | 9.0 | 18.0 | 0.00 | 0.00 | 0.00 | 74 | 1017.7 |
| 20260506045014 | 47 | 352 | 10.0 | 17.0 | 0.00 | 0.00 | 0.00 | 73 | 1017.6 |
| 20260506044537 | 47 | 333 | 10.0 | 17.0 | 0.00 | 0.00 | 0.00 | 72 | 1017.5 |
| 20260506044012 | 47 | 340 | 10.0 | 15.0 | 0.00 | 0.00 | 0.00 | 72 | 1017.5 |
| 20260506043512 | 48 | 26 | 9.0 | 16.0 | 0.00 | 0.00 | 0.00 | 70 | 1017.6 |
| 20260506043031 | 48 | 347 | 10.0 | 16.0 | 0.00 | 0.00 | 0.00 | 70 | 1017.3 |
| 20260506042517 | 48 | 336 | 7.0 | 14.0 | 0.00 | 0.00 | 0.00 | 71 | 1017.3 |
| 20260506042015 | 48 | 319 | 8.0 | 13.0 | 0.00 | 0.00 | 0.00 | 71 | 1017.3 |
| 20260506041533 | 48 | 346 | 7.0 | 14.0 | 0.00 | 0.00 | 0.00 | 70 | 1017.0 |
| 20260506041012 | 49 | 315 | 6.0 | 15.0 | 0.00 | 0.00 | 0.00 | 69 | 1016.7 |
| 20260506040515 | 49 | 322 | 7.0 | 15.0 | 0.00 | 0.00 | 0.00 | 68 | 1016.8 |
| 20260506040036 | 50 | 317 | 7.0 | 13.0 | 0.00 | 0.00 | 0.00 | 68 | 1016.6 |
| 20260506035517 | 50 | 334 | 6.0 | 12.0 | 0.00 | 0.00 | 0.00 | 67 | 1016.7 |
| 20260506035016 | 51 | 313 | 4.0 | 10.0 | 0.00 | 0.00 | 0.00 | 67 | 1016.5 |
| 20260506034532 | 51 | 327 | 4.0 | 10.0 | 0.00 | 0.00 | 0.00 | 68 | 1016.5 |
| 20260506034011 | 52 | 300 | 3.0 | 13.0 | 0.00 | 0.00 | 0.00 | 67 | 1016.3 |
| 20260506033513 | 53 | 284 | 7.0 | 13.0 | 0.00 | 0.00 | 0.00 | 65 | 1016.3 |
| 20260506033038 | 54 | 277 | 6.0 | 12.0 | 0.00 | 0.00 | 0.00 | 63 | 1016.3 |
| 20260506032515 | 54 | 311 | 3.0 | 8.0 | 0.00 | 0.00 | 0.00 | 63 | 1016.3 |
| 20260506032017 | 55 | 300 | 2.0 | 8.0 | 0.00 | 0.00 | 0.00 | 65 | 1016.3 |
| 20260506031536 | 55 | 270 | 4.0 | 7.0 | 0.00 | 0.00 | 0.00 | 63 | 1016.2 |
| 20260506031016 | 56 | 281 | 3.0 | 9.0 | 0.00 | 0.00 | 0.00 | 62 | 1016.3 |
| 20260506030514 | 56 | 294 | 5.0 | 12.0 | 0.00 | 0.00 | 0.00 | 60 | 1016.0 |
| 20260506030054 | 56 | 286 | 6.0 | 12.0 | 0.00 | 0.00 | 0.00 | 60 | 1016.0 |
| 20260506025514 | 56 | 273 | 7.0 | 12.0 | 0.00 | 0.00 | 0.00 | 59 | 1015.8 |
| 20260506025017 | 57 | 288 | 7.0 | 14.0 | 0.00 | 0.00 | 0.00 | 59 | 1016.2 |
| 20260506024542 | 57 | 281 | 7.0 | 15.0 | 0.00 | 0.00 | 0.00 | 58 | 1016.1 |
| 20260506024015 | 57 | 292 | 9.0 | 16.0 | 0.00 | 0.00 | 0.00 | 57 | 1016.0 |
| 20260506023515 | 58 | 274 | 10.0 | 16.0 | 0.00 | 0.00 | 0.00 | 55 | 1015.9 |
| 20260506023035 | 59 | 288 | 6.0 | 12.0 | 0.00 | 0.00 | 0.00 | 57 | 1016.0 |
| 20260506022514 | 59 | 281 | 7.0 | 13.0 | 0.00 | 0.00 | 0.00 | 56 | 1016.0 |
| 20260506022014 | 58 | 274 | 8.0 | 16.0 | 0.00 | 0.00 | 0.00 | 56 | 1016.0 |
| 20260506021537 | 59 | 279 | 10.0 | 16.0 | 0.00 | 0.00 | 0.00 | 55 | 1015.9 |
| 20260506021011 | 59 | 298 | 7.0 | 15.0 | 0.00 | 0.00 | 0.00 | 56 | 1015.8 |
| 20260506020517 | 60 | 273 | 9.0 | 17.0 | 0.00 | 0.00 | 0.00 | 54 | 1015.8 |
| 20260506020035 | 60 | 290 | 9.0 | 17.0 | 0.00 | 0.00 | 0.00 | 52 | 1015.8 |
| 20260506015517 | 60 | 289 | 9.0 | 15.0 | 0.00 | 0.00 | 0.00 | 51 | 1015.6 |
| 20260506015015 | 60 | 294 | 8.0 | 16.0 | 0.00 | 0.00 | 0.00 | 52 | 1015.5 |
| 20260506014543 | 61 | 289 | 8.0 | 15.0 | 0.00 | 0.00 | 0.00 | 52 | 1015.5 |
| 20260506014012 | 61 | 300 | 8.0 | 14.0 | 0.00 | 0.00 | 0.00 | 52 | 1015.5 |
| 20260506013515 | 61 | 290 | 8.0 | 14.0 | 0.00 | 0.00 | 0.00 | 52 | 1015.5 |
| 20260506013032 | 62 | 300 | 7.0 | 15.0 | 0.00 | 0.00 | 0.00 | 51 | 1015.4 |
| 20260506012513 | 62 | 282 | 8.0 | 15.0 | 0.00 | 0.00 | 0.00 | 50 | 1015.4 |
| 20260506012013 | 62 | 271 | 7.0 | 14.0 | 0.00 | 0.00 | 0.00 | 53 | 1015.4 |
| 20260506011538 | 60 | 259 | 7.0 | 16.0 | 0.00 | 0.00 | 0.00 | 53 | 1015.4 |
| 20260506011015 | 61 | 296 | 10.0 | 14.0 | 0.00 | 0.00 | 0.00 | 53 | 1015.4 |
| 20260506010515 | 60 | 281 | 8.0 | 17.0 | 0.00 | 0.00 | 0.00 | 55 | 1015.5 |
| 20260506010045 | 61 | 274 | 10.0 | 18.0 | 0.00 | 0.00 | 0.00 | 53 | 1015.4 |
| 20260506005515 | 60 | 316 | 10.0 | 18.0 | 0.00 | 0.00 | 0.00 | 54 | 1015.4 |
| 20260506005011 | 60 | 280 | 11.0 | 19.0 | 0.00 | 0.00 | 0.00 | 55 | 1015.3 |
| 20260506004546 | 60 | 314 | 13.0 | 19.0 | 0.00 | 0.00 | 0.00 | 53 | 1015.3 |
| 20260506004015 | 61 | 294 | 12.0 | 18.0 | 0.00 | 0.00 | 0.00 | 52 | 1015.5 |
| 20260506003515 | 62 | 276 | 9.0 | 17.0 | 0.00 | 0.00 | 0.00 | 54 | 1015.5 |
| 20260506003040 | 62 | 292 | 12.0 | 17.0 | 0.00 | 0.00 | 0.00 | 52 | 1015.4 |
| 20260506002513 | 63 | 293 | 12.0 | 17.0 | 0.00 | 0.00 | 0.00 | 52 | 1015.4 |
| 20260506002019 | 63 | 278 | 10.0 | 20.0 | 0.00 | 0.00 | 0.00 | 52 | 1015.6 |
| 20260506001543 | 63 | 290 | 11.0 | 20.0 | 0.00 | 0.00 | 0.00 | 51 | 1015.5 |
| 20260506001014 | 64 | 288 | 13.0 | 18.0 | 0.00 | 0.00 | 0.00 | 49 | 1015.5 |
| 20260506000516 | 65 | 271 | 12.0 | 17.0 | 0.00 | 0.00 | 0.00 | 49 | 1015.3 |
| 20260506000038 | 66 | 291 | 11.0 | 17.0 | 0.00 | 0.00 | 0.00 | 49 | 1015.3 |
| 20260505235514 | 67 | 306 | 11.0 | 16.0 | 0.00 | 0.00 | 0.00 | 49 | 1015.3 |
| 20260505235013 | 67 | 293 | 5.0 | 12.0 | 0.00 | 0.00 | 0.00 | 51 | 1015.4 |
| 20260505234535 | 66 | 317 | 3.0 | 10.0 | 0.00 | 0.00 | 0.00 | 51 | 1015.4 |
| 20260505234016 | 64 | 282 | 1.0 | 8.0 | 0.00 | 0.00 | 0.00 | 55 | 1015.4 |
| 20260505233518 | 62 | 273 | 3.0 | 8.0 | 0.00 | 0.00 | 0.00 | 57 | 1015.2 |
| 20260505233032 | 61 | 236 | 3.0 | 9.0 | 0.00 | 0.00 | 0.00 | 61 | 1015.3 |
| 20260505232516 | 60 | 253 | 4.0 | 13.0 | 0.00 | 0.00 | 0.00 | 62 | 1015.4 |
| 20260505232013 | 60 | 271 | 8.0 | 13.0 | 0.00 | 0.00 | 0.00 | 59 | 1015.3 |
| 20260505231532 | 61 | 277 | 9.0 | 13.0 | 0.00 | 0.00 | 0.00 | 57 | 1015.3 |
| 20260505231014 | 61 | 269 | 8.0 | 12.0 | 0.00 | 0.00 | 0.00 | 57 | 1015.4 |
| 20260505230514 | 60 | 273 | 6.0 | 11.0 | 0.00 | 0.00 | 0.00 | 55 | 1015.4 |